Regional Weather Roundup
Issued by NWS

Home | Current Version | Previous Version | Text Only | Print | Product List | Glossary On
Versions: 1 2 3 4 5 6 7 8 9 10 11 12 13 14 15 16 17 18 19 20 21 22 23 24 25 26 27 28 29 30 31 32 33 34 35 36 37 38 39 40 41 42 43 44 45 46 47 48 49 50
000
ASUS44 KBMX 281710
RWRAL

ALABAMA REGIONAL WEATHER ROUNDUP
NATIONAL WEATHER SERVICE BIRMINGHAM AL
1100 AM CST FRI NOV 28 2014

NOTE: "FAIR" INDICATES FEW OR NO CLOUDS BELOW 12,000 FEET
WITH NO SIGNIFICANT WEATHER AND/OR OBSTRUCTIONS TO VISIBILITY.

THE REMARK "TC" DENOTES TEMPERATURE IN DEGREES CELSIUS.

ALZ001>011-014-016>018-020-281800-
NORTH ALABAMA

CITY           SKY/WX    TMP DP  RH WIND       PRES   REMARKS
MUSCLE SHOALS  SUNNY     41  25  53 SE6       30.42F
HUNTSVILLE     SUNNY     42  23  46 SE6       30.40F
DECATUR        SUNNY     41  24  51 SE6       30.41F
HALEYVILLE     FAIR      42  24  49 VRB5      30.40F
GADSDEN        SUNNY     39  16  38 CALM      30.42F
$$

ALZ012-013-022-023-030>036-040>044-281800-
WEST CENTRAL ALABAMA

CITY           SKY/WX    TMP DP  RH WIND       PRES   REMARKS
TUSCALOOSA     SUNNY     46  18  32 SE6       30.44F
$$

ALZ015-024>027-033>036-040>044-281800-
CENTRAL ALABAMA

CITY           SKY/WX    TMP DP  RH WIND       PRES   REMARKS
BIRMINGHAM     SUNNY     44  13  28 VRB6      30.42F
MONTGOMERY     SUNNY     47  21  35 VRB5      30.44F
SHELBY CO ARPT SUNNY     44  16  32 VRB5      30.42F
MAXWELL AFB    SUNNY     47  17  30 NE5       30.43F
GREENVILLE     FAIR      50  24  36 VRB5      30.40F
$$

ALZ019-021-028-029-037-038-045>048-281800-
EAST CENTRAL ALABAMA

CITY           SKY/WX    TMP DP  RH WIND       PRES   REMARKS
ANNISTON       SUNNY     40  20  44 SE3       30.42F
ALEXANDER CITY SUNNY     47  18  31 N5        30.40F
AUBURN         SUNNY     43  19  39 N6        30.41F
$$

ALZ051>064-281800-
SOUTHWEST ALABAMA

CITY           SKY/WX    TMP DP  RH WIND       PRES   REMARKS
MOBILE         SUNNY     50  28  42 VRB5      30.43F
BROOKLEY FIELD SUNNY     50  32  50 VRB5      30.44F
EVERGREEN      SUNNY     50  27  40 N5        30.41F
$$

ALZ049-050-065>069-281800-
SOUTHEAST ALABAMA

CITY           SKY/WX    TMP DP  RH WIND       PRES   REMARKS
DOTHAN         SUNNY     48  27  44 N8        30.43F
OZARK          SUNNY     47  25  42 VRB3      30.40F
TROY           SUNNY     49  24  37 N6        30.41F
EUFAULA        FAIR      47  26  44 VRB5      30.40F
$$


USA.gov is the U.S. government's official web portal to all federal, state and local government web resources and services.